weather.gov     
National Weather Service

Regional Weather Roundup
NWS Homepage
This page is being discontinued on March 12, 2014.
The same data is available at this site. Please update your bookmarks.
Thank you, and we apologize for the inconvenience.
Please send an email to SR-SRH.Webmaster@noaa.gov with any concerns.


Current Version
Previous Version:    01  02  03  04  05  06  07  08  09  10  11  12  13  14  15  16  17  18  19  20  21  22  23  24  25  26  27  28  29  30  
   31  32  33  34  35  36  37  38  39  40  41  42  43  44  45  46  47  48  49  50  51  52  53  
[Printable]
217
ASUS44 KMAF 200810
RWRMAF
MIDLAND AREA WEATHER ROUNDUP
NATIONAL WEATHER SERVICE MIDLAND TX
300 AM CDT WED AUG 20 2014

...IN SOUTHWEST TEXAS AND SOUTHEAST NEW MEXICO...

CITY           SKY/WX    TMP DP  RH WIND       PRES   REMARKS
ALPINE         MOCLDY    71  61  69 SW8       30.06F
ANDREWS        FAIR      75  63  65 S7        29.92F
ARTESIA        CLEAR     75  57  53 S10       29.89S
BIG SPRING     CLEAR     79  65  62 SE10      29.92S
CARLSBAD       PTCLDY    77  59  53 CALM      29.87F
DRYDEN           N/A     83  68  60 E7        29.87F
FORT STOCKTON  PTCLDY    75  65  70 S10       29.91F
GUAD PASS      PTCLDY    65  58  78 W15       30.06F
HOBBS          CLEAR     73  63  68 S13       29.94F
MARFA          CLOUDY    68  64  88 SW5       30.07S
MIDLAND AIRPK  CLEAR     77  64  63 SE10      29.91F
MIDLAND INTL   CLEAR     76  64  66 SE9       29.90F
ODESSA         CLEAR     77  64  64 S10       29.91F
PECOS          MOCLDY    76  60  56 S5        29.88S
PRESIDIO       PTSUNNY   78  65  66 N5        29.91F
SEMINOLE       CLEAR     75  63  65 S8        29.93F
SNYDER         CLEAR     74  64  72 SE10      29.91S
WINK           CLEAR     78  65  63 SE10      29.87F
$$
...OTHER STATIONS IN TEXAS...

CITY           SKY/WX    TMP DP  RH WIND       PRES   REMARKS
ABILENE        CLEAR     79  66  64 S14       29.89F
AMARILLO       CLEAR     74  64  71 S16       29.92F
AUSTIN         PTCLDY    79  73  82 S8        29.91F
BROWNSVILLE    CLEAR     79  76  90 SE3       29.89F
CORPUS CHRISTI PTCLDY    81  77  88 SE12      29.90S
DALLAS FTW     CLOUDY    81  70  69 S13       29.89S
DEL RIO        CLEAR     85  64  49 SE7       29.84S
EL PASO        PTCLDY    71  58  63 SW14      29.95S
HOUSTON INT    PTCLDY    75  73  93 S3        29.94S
LUBBOCK        CLEAR     75  62  64 S15       29.92F
SAN ANGELO     CLEAR     76  69  79 S9        29.89F
SAN ANTONIO    MOCLDY    80  73  79 S13       29.93S
WACO           MOCLDY    79  70  74 S12       29.90S
WICHITA FALLS  NOT AVBL
$$
...OTHER LOCATIONS IN NEW MEXICO...

CITY           SKY/WX    TMP DP  RH WIND       PRES   REMARKS
ALAMAGORDO     PTCLDY    70  57  64 S9        29.95F
ALBUQUERQUE    CLOUDY    69  51  52 SE5       30.04F
CANNON AFB     CLEAR     72  60  66 S10       29.95F
CLOVIS           N/A     70  59  68 S9        29.98S
HOLLOMAN AFB   PTCLDY    72  59  64 SE10      29.93F
ROSWELL        CLEAR     71  56  58 SW6       29.87F
RUIDOSO        PTCLDY    61  48  63 SW8       30.13F
SANTA FE       MOCLDY    65  50  58 W8        30.08S
TRUTH OR CONSE CLOUDY    73  55  53 NW3       29.99S
TUCUMCARI      PTCLDY    77  57  50 S16       29.89F
$$




U.S. Dept. of Commerce
NOAA National Weather Service
1325 East West Highway
Silver Spring, MD 20910
E-mail: w-nws.webmaster@noaa.gov
Page last modified: May 16, 2007
NATIONAL WEATHER SERVICE: for Safety, for Work, for Fun - FOR LIFE